STARLINK-31643, 59388

Orbit data source: Space-Track

STARLINK-31643, 59388 is a payload satellite owned by SpaceX/Seattle (US) in LEO that was launched on Tue, 02 Apr 2024 UTC via an FALCON 9 launch vehicle from the Air Force Western Test Range (AFWTR). Payload-class satellites include a variety of spacecraft equipped with specific instruments for various scientific and technological missions. These include communications satellites like Starlink; space stations such as the ISS; scientific satellites like the Hubble; Earth observation satellites from companies like Planet Labs, Umbra, and HawkEye 360; GPS; miniature CubeSats for education and research; and military/defense satellites.

Loading next visibility...
Identifier
59388, 2024-062Q
Orbit
LEO
Country
Flag of USUS
Related business
Manufacturer
SpaceX/Seattle
Mission
Operational Commercial Communications
Bus & Motor
STARLINK V2M, Unknown motor
Mass
730 kg wet, ~700 kg dry
Launch date (UTC)
2024-04-02 (2 years ago)
Launch vehicle
FALCON 9
Launch site
Air Force Western Test Range (AFWTR)
Object type
Payload
Rocket body
Debris
Shape & HBR
Box + 2 Pan, 17.7 m
Radar Cross Section
33.884 m², Large (>1 m²)

Expand to show TLE details & history
Last TLE update: 2 days ago

TLE from 2 days ago
0 STARLINK-31643
1 59388U 24062Q   26171.19047714  .00000795  00000-0  34662-4 0  9993
2 59388  53.1605 138.9278 0001264  93.3424 266.7723 15.34393629125377
Epoch: 2026-06-20T04:34Z
TLE epoch observation values (Epoch: 2026-06-20T04:34:17.224Z)
Latitude
-0.00006°
Longitude
161.94733°
Altitude
463.672 km
Speed
7.636 km/s
True Right ascension
09h 15m 42s
True Declination
0° 00' 00"
Sunlit
Object was in daylight at epoch
Visualization orbit readout
Latitude
Unknown
Longitude
Unknown
Altitude
Unknown
Speed
Unknown
Apparent Right ascension
Unknown
Apparent Declination
Unknown
Sunlit
N/A
Visualization observer readout
Local Sidereal Time
21:32:55
Azimuth
Unknown
Elevation
Unknown
Doppler factor
Unknown
Orbital elements
Apogee altitude
463.844 km
Perigee altitude
462.114 km
Semi-major axis
6,841.116 km
Eccentricity
0.00013
Inclination
53.1605°
RAAN
138.9278°
Arg. of periapsis
93.3424°
True anomaly
266.75784°
Mean anomaly
266.7723°
Eccentric anomaly
266.76507°
Mean motion
3.83577 °/min
Orbital period
93.85 mins
BSTAR
0.000034662
Loading maneuver chart data...
Computing Atmospheric mass density...
Loading historical data...
Loading historical data...
Loading historical data...
Loading historical data...
Loading historical data...
Loading historical data...
Loading historical data...

Documentation

Showing up to 5 results
|